When you browse on this site, cookies collect data to enhance your experience and personalize the content and advertising you see.
Visit our Privacy Policy to learn more. By continuing to use the site, you agree to this use of cookies and data.
  • En España
  • Lista de países
  • Para 7 días
  • Temperatura del agua
  • Mapa Satelital
  • El tiempo en el mapa
  • Informadores
  • user-avatar
    Iniciar sesión

    Tiempo cada hora Arkalyk

    Hoy, 19 Junio, Miércoles

    Tiempo Temperatura Precipitaciones Viento Presión Humedad
    00:00 +12°C° 0 mm 3 mps 726 mmHg 76%
    01:00 +12°C° 0 mm 2 mps 727 mmHg 80%
    02:00 +12°C° 0 mm 2 mps 727 mmHg 82%
    03:00 +12°C° 0 mm 2 mps 727 mmHg 84%
    04:00 +10°C° 0 mm 2 mps 727 mmHg 86%
    05:00 +13°C° 0 mm 2 mps 728 mmHg 78%
    06:00 +13°C° 0 mm 3 mps 728 mmHg 70%
    07:00 +14°C° 0 mm 3 mps 728 mmHg 62%
    08:00 +16°C° 0 mm 3 mps 729 mmHg 55%
    09:00 +17°C° 0 mm 3 mps 729 mmHg 48%
    10:00 +19°C° 0 mm 4 mps 729 mmHg 42%
    11:00 +19°C° 0 mm 3 mps 729 mmHg 39%
    12:00 +20°C° 0 mm 3 mps 729 mmHg 36%
    13:00 +21°C° 0 mm 3 mps 729 mmHg 34%
    14:00 +21°C° 0 mm 3 mps 729 mmHg 33%
    15:00 +21°C° 0 mm 3 mps 729 mmHg 32%
    16:00 +22°C° 0 mm 3 mps 730 mmHg 31%
    17:00 +21°C° 0 mm 3 mps 730 mmHg 34%
    18:00 +20°C° 0 mm 3 mps 730 mmHg 38%
    19:00 +19°C° 0 mm 3 mps 730 mmHg 41%
    20:00 +18°C° 0 mm 3 mps 730 mmHg 44%
    21:00 +17°C° 0 mm 3 mps 730 mmHg 46%
    22:00 +16°C° 0 mm 3 mps 730 mmHg 49%
    23:00 +16°C° 0 mm 3 mps 730 mmHg 53%

    Mañana, 20 Junio, Jueves

    Tiempo Temperatura Precipitaciones Viento Presión Humedad
    00:00 +14°C° 0 mm 3 mps 730 mmHg 57%
    01:00 +13°C° 0 mm 3 mps 730 mmHg 61%
    02:00 +13°C° 0 mm 3 mps 730 mmHg 64%
    03:00 +13°C° 0 mm 3 mps 731 mmHg 66%
    04:00 +12°C° 0 mm 3 mps 731 mmHg 68%
    05:00 +14°C° 0 mm 3 mps 731 mmHg 64%
    06:00 +16°C° 0 mm 3 mps 731 mmHg 59%
    07:00 +18°C° 0 mm 3 mps 731 mmHg 54%
    08:00 +19°C° 0 mm 2 mps 731 mmHg 48%
    09:00 +20°C° 0 mm 2 mps 731 mmHg 43%
    10:00 +21°C° 0 mm 2 mps 731 mmHg 38%
    11:00 +23°C° 0 mm 2 mps 731 mmHg 35%
    12:00 +24°C° 0 mm 2 mps 731 mmHg 33%
    13:00 +24°C° 0 mm 2 mps 731 mmHg 30%
    14:00 +25°C° 0 mm 2 mps 731 mmHg 29%
    15:00 +25°C° 0 mm 2 mps 731 mmHg 29%
    16:00 +25°C° 0 mm 1 mps 731 mmHg 28%
    17:00 +24°C° 0 mm 1 mps 731 mmHg 32%
    18:00 +24°C° 0 mm 1 mps 731 mmHg 36%
    19:00 +23°C° 0 mm 1 mps 731 mmHg 40%
    20:00 +21°C° 0 mm 2 mps 731 mmHg 44%
    21:00 +20°C° 0 mm 3 mps 731 mmHg 48%
    22:00 +19°C° 0 mm 3 mps 731 mmHg 52%
    23:00 +18°C° 0 mm 3 mps 731 mmHg 55%

    Pasado mañana, 21 Junio, Viernes

    Tiempo Temperatura Precipitaciones Viento Presión Humedad
    00:00 +18°C° 0 mm 3 mps 730 mmHg 57%
    01:00 +17°C° 0 mm 3 mps 730 mmHg 60%
    02:00 +17°C° 0 mm 3 mps 730 mmHg 62%
    03:00 +16°C° 0 mm 3 mps 730 mmHg 64%
    04:00 +16°C° 0 mm 3 mps 730 mmHg 66%
    05:00 +18°C° 0 mm 3 mps 730 mmHg 61%
    06:00 +19°C° 0 mm 3 mps 731 mmHg 56%
    07:00 +21°C° 0 mm 3 mps 731 mmHg 51%
    08:00 +23°C° 0 mm 2 mps 731 mmHg 46%
    09:00 +24°C° 0 mm 2 mps 731 mmHg 42%
    10:00 +25°C° 0 mm 2 mps 730 mmHg 37%
    11:00 +26°C° 0 mm 2 mps 730 mmHg 34%
    12:00 +27°C° 0 mm 2 mps 730 mmHg 31%
    13:00 +28°C° 0 mm 2 mps 730 mmHg 28%
    14:00 +28°C° 0 mm 2 mps 730 mmHg 28%
    15:00 +28°C° 0 mm 3 mps 730 mmHg 27%
    16:00 +29°C° 0 mm 3 mps 729 mmHg 26%
    17:00 +28°C° 0 mm 3 mps 729 mmHg 30%
    18:00 +26°C° 0 mm 3 mps 729 mmHg 33%
    19:00 +25°C° 0 mm 3 mps 729 mmHg 37%
    20:00 +24°C° 0 mm 2 mps 729 mmHg 39%
    21:00 +23°C° 0 mm 2 mps 729 mmHg 41%
    22:00 +21°C° 0 mm 1 mps 729 mmHg 43%
    23:00 +21°C° 0 mm 1 mps 729 mmHg 43%

    22 Junio, Sábado

    Tiempo Temperatura Precipitaciones Viento Presión Humedad
    00:00 +20°C° 0 mm 2 mps 729 mmHg 43%
    01:00 +20°C° 0 mm 2 mps 729 mmHg 43%
    02:00 +19°C° 0 mm 3 mps 729 mmHg 51%
    03:00 +19°C° 0 mm 3 mps 729 mmHg 59%
    04:00 +18°C° 0 mm 4 mps 729 mmHg 68%
    05:00 +20°C° 0 mm 4 mps 730 mmHg 62%
    06:00 +21°C° 0 mm 4 mps 730 mmHg 56%
    07:00 +23°C° 0 mm 5 mps 731 mmHg 51%
    08:00 +25°C° 0 mm 5 mps 731 mmHg 44%
    09:00 +26°C° 0 mm 5 mps 731 mmHg 38%
    10:00 +27°C° 0 mm 5 mps 731 mmHg 32%
    11:00 +27°C° 0 mm 5 mps 731 mmHg 32%
    12:00 +27°C° 0 mm 6 mps 732 mmHg 32%
    13:00 +28°C° 0 mm 6 mps 732 mmHg 33%
    14:00 +27°C° 0 mm 6 mps 732 mmHg 34%
    15:00 +27°C° 0 mm 6 mps 732 mmHg 34%
    16:00 +27°C° 0 mm 6 mps 732 mmHg 35%
    17:00 +26°C° 0 mm 6 mps 732 mmHg 38%
    18:00 +23°C° 0 mm 5 mps 733 mmHg 40%
    19:00 +22°C° 0 mm 5 mps 733 mmHg 42%
    20:00 +21°C° 0 mm 5 mps 733 mmHg 44%
    21:00 +19°C° 0 mm 5 mps 734 mmHg 46%
    22:00 +17°C° 0 mm 5 mps 734 mmHg 48%
    23:00 +17°C° 0 mm 4 mps 734 mmHg 51%

    23 Junio, Domingo

    Tiempo Temperatura Precipitaciones Viento Presión Humedad
    00:00 +16°C° 0 mm 3 mps 734 mmHg 54%
    01:00 +15°C° 0 mm 2 mps 734 mmHg 57%
    02:00 +15°C° 0 mm 2 mps 734 mmHg 59%
    03:00 +14°C° 0 mm 2 mps 734 mmHg 60%
    04:00 +14°C° 0 mm 1 mps 735 mmHg 62%
    05:00 +16°C° 0 mm 1 mps 735 mmHg 56%
    06:00 +18°C° 0 mm 1 mps 735 mmHg 51%
    07:00 +20°C° 0 mm 1 mps 735 mmHg 45%
    08:00 +21°C° 0 mm 1 mps 735 mmHg 41%
    09:00 +21°C° 0 mm 2 mps 735 mmHg 38%
    10:00 +22°C° 0 mm 3 mps 735 mmHg 34%
    11:00 +24°C° 0 mm 3 mps 735 mmHg 33%
    12:00 +25°C° 0 mm 3 mps 735 mmHg 31%
    13:00 +26°C° 0 mm 3 mps 735 mmHg 30%
    14:00 +27°C° 0 mm 4 mps 734 mmHg 30%
    15:00 +27°C° 0 mm 4 mps 734 mmHg 30%
    16:00 +27°C° 0 mm 4 mps 734 mmHg 30%
    17:00 +27°C° 0 mm 4 mps 734 mmHg 33%
    18:00 +26°C° 0 mm 3 mps 733 mmHg 37%
    19:00 +25°C° 0 mm 3 mps 733 mmHg 40%
    20:00 +24°C° 0 mm 3 mps 733 mmHg 40%
    21:00 +22°C° 0 mm 3 mps 733 mmHg 41%
    22:00 +21°C° 0 mm 4 mps 733 mmHg 41%
    23:00 +21°C° 0 mm 4 mps 733 mmHg 42%

    24 Junio, Lunes

    Tiempo Temperatura Precipitaciones Viento Presión Humedad
    00:00 +20°C° 0 mm 4 mps 733 mmHg 42%
    01:00 +20°C° 0 mm 4 mps 733 mmHg 43%
    02:00 +20°C° 0 mm 4 mps 732 mmHg 44%
    03:00 +19°C° 0 mm 4 mps 732 mmHg 46%
    04:00 +19°C° 0 mm 4 mps 732 mmHg 47%
    05:00 +20°C° 0 mm 5 mps 732 mmHg 44%
    06:00 +22°C° 0 mm 6 mps 732 mmHg 41%
    07:00 +24°C° 0 mm 6 mps 733 mmHg 38%
    08:00 +26°C° 0 mm 6 mps 732 mmHg 36%
    09:00 +28°C° 0 mm 6 mps 732 mmHg 35%
    10:00 +30°C° 0 mm 6 mps 732 mmHg 34%
    11:00 +30°C° 0 mm 6 mps 732 mmHg 33%
    12:00 +32°C° 0 mm 6 mps 732 mmHg 33%
    13:00 +33°C° 0 mm 6 mps 732 mmHg 32%
    14:00 +33°C° 0 mm 6 mps 731 mmHg 33%
    15:00 +33°C° 0 mm 6 mps 731 mmHg 33%
    16:00 +33°C° 0 mm 6 mps 731 mmHg 34%
    17:00 +32°C° 0 mm 5 mps 731 mmHg 38%
    18:00 +30°C° 0 mm 4 mps 731 mmHg 42%
    19:00 +29°C° 0 mm 3 mps 731 mmHg 46%
    20:00 +28°C° 0 mm 3 mps 731 mmHg 50%
    21:00 +26°C° 0 mm 3 mps 731 mmHg 54%
    22:00 +25°C° 0 mm 2 mps 731 mmHg 58%
    23:00 +25°C° 0 mm 2 mps 731 mmHg 61%
    Mostrar más